Location: Santa Cristina
(46.5667°N, 11.7167°E)
Time: 06:27:35
(UTC+00:00)

Cosmos 2263 - Pass Details

Date: 21 April 2021
Orbit: 829 x 867 km, 70.9° (Epoch: 15 May)

Event Time Altitude Azimuth Distance (km) Brightness Sun altitude
Exits shadow 03:11:41 - 201° (SSW) 2,804 6.4 -10.8°
Reaches altitude 10° 03:12:33 10° 201° (SSW) 2,474 6.2 -10.6°
Maximum altitude 03:18:15 82° 115° (ESE) 873 4.3 -9.8°
Drops below altitude 10° 03:24:02 10° 28° (NNE) 2,513 7.6 -8.9°
Sets 03:26:31 0° 28° (NNE) 3,457 8.4 -8.5°
